Ottumwa, IA

8:49 PM CDT on March 26, 2017 (GMT -0500)
Ottumwa Industrial

Weather History for KOTM - January, 2013

Change the Weather History Date:

Thursday, January 17, 2013

  Actual Average Record
Temperature  
Mean Temperature 27 °F 22 °F  
Max Temperature 35 °F 31 °F 59 °F (1996)
Min Temperature 18 °F 13 °F -16 °F (1982)
Degree Days  
Heating Degree Days 38 43  
Month to date heating degree days 619 725  
Since 1 July heating degree days 2928 3230  
Cooling Degree Days 0 0  
Month to date cooling degree days 0 0  
Year to date cooling degree days 0 0  
Moisture  
Dew Point 16 °F    
Average Humidity 64    
Maximum Humidity 89    
Minimum Humidity 39    
Precipitation  
Precipitation 0.00 in 0.03 in 0.66 in (1996)
Month to date precipitation 0.13 0.53  
Year to date precipitation 0.13 0.53  
Sea Level Pressure  
Sea Level Pressure 30.39 in    
Wind  
Wind Speed 8 mph (NW)    
Max Wind Speed 20 mph    
Max Gust Speed 24 mph    
Visibility 10 miles    
Events      
T = Trace of Precipitation, MM = Missing Value Source: NWS Daily Summary

Daily Weather History Graph

Daily Weather History Graph

Search for Another Location

Airport or City:

Trip Planner

Search our weather history database for the weather conditions in past years. The results will help you decide how hot, cold, wet, or windy it might be!

Date:

Astronomy

Jan. 17, 2013 Rise Set
Actual Time 7:31 AM CST 5:08 PM CST
Civil Twilight 7:01 AM CST 5:38 PM CST
Nautical Twilight 6:27 AM CST 6:12 PM CST
Astronomical Twilight 5:54 AM CST 6:45 PM CST
Moon 10:34 AM CST (1/17) No Moon Set
Length of Visible Light 10h 37m
Length of Day
9h 36m
Waxing Crescent, 38% of the Moon is Illuminated
Jan 17
Waxing Crescent
Jan 18
First Quarter
Jan 26
Full
Feb 3
Last Quarter
Feb 10
New

Hourly Weather History & Observations

Time (CST) Temp. Windchill Dew Point Humidity Pressure Visibility Wind Dir Wind Speed Gust Speed Precip Events Conditions
12:53 AM 32.0 °F 20.8 °F 26.1 °F 79% 30.22 in 10.0 mi NNW 17.3 mph - N/A   Overcast
1:53 AM 30.0 °F 21.1 °F 25.0 °F 82% 30.24 in 10.0 mi NNW 10.4 mph - N/A   Overcast
2:53 AM 26.6 °F 15.2 °F 19.4 °F 74% 30.25 in 10.0 mi NNW 13.8 mph - N/A   Mostly Cloudy
3:08 AM 24.8 °F 14.0 °F 19.4 °F 80% 30.26 in 10.0 mi NNW 11.5 mph - N/A   Scattered Clouds
3:53 AM 24.1 °F 13.7 °F 19.0 °F 81% 30.30 in 10.0 mi NNW 10.4 mph - N/A   Clear
4:53 AM 21.9 °F 9.8 °F 17.1 °F 82% 30.33 in 10.0 mi NNW 12.7 mph - N/A   Clear
5:53 AM 19.4 °F 6.6 °F 15.8 °F 86% 30.33 in 10.0 mi NNW 12.7 mph - N/A   Clear
6:53 AM 18.0 °F 6.1 °F 14.0 °F 84% 30.39 in 10.0 mi NNW 10.4 mph - N/A   Clear
7:53 AM 18.0 °F 7.7 °F 14.0 °F 84% 30.42 in 10.0 mi NW 8.1 mph - N/A   Clear
8:53 AM 21.0 °F 9.9 °F 14.0 °F 74% 30.45 in 10.0 mi NW 10.4 mph - N/A   Clear
9:53 AM 24.1 °F 12.5 °F 14.0 °F 65% 30.47 in 10.0 mi NW 12.7 mph - N/A   Clear
10:53 AM 27.0 °F 18.7 °F 12.9 °F 56% 30.47 in 10.0 mi NNW 8.1 mph - N/A   Clear
11:53 AM 30.9 °F 21.2 °F 10.0 °F 42% 30.45 in 10.0 mi NNW 12.7 mph 16.1 mph N/A   Clear
12:53 PM 32.0 °F 25.6 °F 10.0 °F 40% 30.43 in 10.0 mi NNW 6.9 mph - N/A   Mostly Cloudy
1:53 PM 33.1 °F 25.5 °F 12.0 °F 42% 30.42 in 10.0 mi NNW 9.2 mph - N/A   Clear
2:53 PM 33.1 °F 26.1 °F 14.0 °F 46% 30.42 in 10.0 mi WNW 8.1 mph - N/A   Clear
3:53 PM 34.0 °F 28.0 °F 16.0 °F 48% 30.43 in 10.0 mi WSW 6.9 mph - N/A   Clear
4:53 PM 32.0 °F 27.5 °F 17.1 °F 54% 30.44 in 10.0 mi WSW 4.6 mph - N/A   Clear
5:53 PM 28.0 °F 22.8 °F 16.0 °F 61% 30.44 in 10.0 mi SW 4.6 mph - N/A   Clear
6:53 PM 24.1 °F 19.7 °F 15.1 °F 69% 30.45 in 10.0 mi SSW 3.5 mph - N/A   Clear
7:53 PM 25.0 °F - 15.1 °F 66% 30.45 in 10.0 mi Calm Calm - N/A   Clear
8:53 PM 21.9 °F 17.2 °F 14.0 °F 72% 30.44 in 10.0 mi SSE 3.5 mph - N/A   Clear
9:53 PM 24.1 °F - 16.0 °F 71% 30.43 in 10.0 mi Calm Calm - N/A   Clear
10:53 PM 24.1 °F 18.2 °F 15.1 °F 69% 30.42 in 10.0 mi South 4.6 mph - N/A   Clear
11:53 PM 23.0 °F - 15.1 °F 72% 30.41 in 10.0 mi North - - N/A   Clear